[[{"header":{"parameterUnit":"m.s-1","parameterCategory":1,"la1":30.2991,"la2":30.254,"lo1":-89.0895,"lo2":-89.0444,"dy":0.0017,"dx":0.0017,"nx":28,"ny":28,"refTime":"2024-02-04T09:00:00:Z","depth":0,"parameterNumber":2,"parameterNumberName":"U-component_of_WINDS"},"data":[0,0,0,0,0,0,0,0,0,0,0,0,0,0,0,0,0,0,0,0,0,0,0,0,0,0,0,0,0,0,0,0,0,0,0,0,0,0,0,0,0,0,0,0,0,0,0,0,0,0,0,0,0,0,0,0,0,0,-11.0248,-11.0252,0,-11.0588,-11.0592,-11.0596,-11.0574,-11.0569,-11.0564,-11.056,-11.0895,-11.0908,-11.0922,0,0,0,0,0,0,0,0,0,0,0,0,0,-10.957,-10.9582,-11.0248,-11.0252,-11.0257,-11.0588,-11.0592,-11.0597,-11.0575,-11.0569,-11.0563,-11.0557,-11.0891,-11.0907,-11.0923,0,0,0,0,0,0,0,0,0,0,0,0,0,-10.9882,-10.9586,-11.0247,-11.0286,-11.0293,-11.0587,-11.0593,-11.0598,-11.0576,-11.0569,-11.0561,-11.0554,-11.0885,-11.0905,-11.0925,-11.1199,0,0,-11.0987,-11.0996,0,0,0,0,0,0,0,0,-10.9864,-10.9907,-11.0276,-11.0284,-11.0292,-11.0532,-11.0476,-11.0799,-11.0578,-11.0468,-11.0559,-11.0551,-11.0779,-11.0808,-11.0888,-11.1215,-11.1229,-11.0989,-11.1001,-11.101,-11.1016,0,0,0,0,0,0,0,-10.9843,-10.9892,-11.0382,-11.0281,-11.0291,-11.0283,-11.0319,-11.0537,-11.0661,-11.0477,-11.0476,-11.0518,-11.0782,-11.0868,-11.0895,-11.1234,-11.0988,-11.1006,-11.1019,-11.1027,-11.1805,-11.1813,0,0,0,0,0,0,-10.9814,-10.9874,-11.0371,-11.0392,-11.0056,-11.0301,-11.0342,-11.0462,-11.0658,-11.0682,-11.0524,-11.0515,-11.0837,-11.0872,-11.0907,-11.124,-11.101,-11.1029,-11.1041,-11.1796,-11.1807,-11.1816,0,0,0,0,0,0,-10.98,-10.9859,-11.0358,-11.0134,-11.0197,-11.0321,-11.0456,-11.0472,-11.0558,-11.0694,-11.0714,-11.0589,-11.0832,-11.0878,-11.1128,-11.1251,-11.1038,-11.1057,-11.1786,-11.18,-11.1811,-11.1909,0,0,0,0,0,0,-10.978,-10.9854,-10.9961,-11.0136,-11.0209,-11.0576,-11.0464,-11.0484,-11.0595,-11.0587,-11.0761,-11.0782,-11.083,-11.1098,-11.1148,-11.1275,-11.1072,-11.1776,-11.1792,-11.1807,-11.1895,-11.1923,-11.1948,0,0,0,0,0,-10.9756,-10.9971,-10.9966,-11.0026,-11.0346,-11.0583,-11.0624,-11.0678,-11.0605,-11.0712,-11.08,-11.0777,-11.1232,-11.1123,-11.118,-11.1315,-11.1768,-11.1788,-11.1806,-11.1883,-11.1918,-11.1947,0,0,0,0,0,0,-10.98,-10.9995,-10.9991,-11.027,-11.0411,-11.0579,-11.0715,-11.0713,-11.0873,-11.0858,-11.0916,-11.0955,-11.1206,-11.1286,-11.1163,-11.1592,-11.149,-11.1521,-11.1529,-11.1563,-11.1589,-11.1561,-11.1089,0,0,0,0,0,-10.9844,-11.0025,-11.0183,-11.0414,-11.0486,-11.0589,-11.0694,-11.0725,-11.0871,-11.0928,-11.1034,-11.1173,-11.1348,-11.1461,-11.1629,-11.1909,-11.1945,-11.2031,-11.2057,-11.2078,-11.2102,-11.2256,-11.2295,-11.1878,-11.1878,-11.1878,0,0,-10.9933,-11.0062,-11.017,-11.0426,-11.0539,-11.0721,-11.0638,-11.0834,-11.0968,-11.0957,-11.1199,-11.1283,-11.1442,-11.1709,-11.1831,-11.1783,-11.2227,-11.2102,-11.2118,-11.2131,-11.2279,-11.2319,-11.2354,-11.1891,-11.1889,-11.1887,0,0,-11.0187,-11.0305,-11.051,-11.0627,-11.0801,-11.0869,-11.0919,-11.109,-11.1146,-11.1392,-11.1388,-11.1548,-11.1847,-11.1961,-11.2058,-11.2365,-11.2348,-11.2418,-11.2552,-11.2702,-11.2734,-11.2763,-11.287,-11.2907,-11.2443,-11.2443,-11.2443,0,-11.0274,-11.0552,-11.0614,-11.0814,-11.0925,-11.0931,-11.1138,-11.1247,-11.1464,-11.154,-11.1486,-11.1864,-11.1972,-11.2265,-11.234,-11.242,-11.2476,-11.2394,-11.2725,-11.2755,-11.2783,-11.2885,-11.2925,-11.245,-11.2449,-11.2449,-11.2448,0,-11.0649,-11.0842,-11.0987,-11.1203,-11.1332,-11.1533,-11.1624,-11.1747,-11.1769,-11.1843,-11.2094,-11.2225,-11.242,-11.2493,-11.2514,-11.2791,-11.2755,-11.2714,-11.261,-11.2829,-11.2925,-11.2965,-11.246,-11.2458,-11.2456,-11.2454,0,0,-11.0931,-11.1187,-11.1238,-11.1337,-11.1534,-11.1682,-11.1885,-11.2081,-11.2184,-11.2336,-11.2505,-11.2762,-11.2726,-11.2836,-11.2871,-11.3003,-11.3235,-11.2945,-11.2949,-11.2991,-11.3545,-11.3572,-11.3616,-11.3229,-11.3237,-11.3243,-11.3531,0,-11.1203,-11.1566,-11.1631,-11.1946,-11.2124,-11.2136,-11.2313,-11.245,-11.2527,-11.2687,-11.277,-11.295,-11.289,-11.2957,-11.3089,-11.3179,-11.3346,-11.316,-11.3382,-11.3389,-11.3336,-11.3667,-11.3695,-11.396,-11.3569,-11.3576,-11.358,0,-11.1565,-11.1733,-11.2067,-11.2243,-11.232,-11.2477,-11.2663,-11.2819,-11.2975,-11.3022,-11.315,-11.3171,-11.3379,-11.3274,-11.356,-11.3432,-11.3528,-11.3587,-11.3598,-11.3615,-11.3493,-11.3688,-11.4046,-11.4083,-11.3641,-11.3636,-11.3632,0,-11.1733,-11.2043,-11.2283,-11.2368,-11.258,-11.269,-11.2783,-11.2933,-11.3048,-11.3211,-11.3286,-11.347,-11.3569,-11.371,-11.3779,-11.3696,-11.4061,-11.3961,-11.4101,-11.4099,-11.417,-11.4164,-11.4543,-11.4242,-11.4242,-11.4241,-11.424,0,-11.2025,-11.2227,-11.2362,-11.2509,-11.2737,-11.2812,-11.3034,-11.3124,-11.326,-11.3422,-11.3445,-11.3596,-11.3682,-11.3846,-11.3902,-11.413,-11.4175,-11.4216,-11.4227,-11.4211,-11.4205,-11.4268,-11.425,-11.4252,-11.4249,-11.4247,-11.4245,0,-11.2247,-11.2346,-11.2608,-11.2791,-11.2842,-11.3001,-11.3155,-11.3297,-11.3377,-11.3583,-11.3635,-11.3759,-11.3953,-11.404,-11.4278,-11.4316,-11.4575,-11.4576,-11.4522,-11.4525,-11.4659,-11.4643,-11.5087,-11.5148,-11.4812,-11.4816,-11.4818,0,-11.2423,-11.2581,-11.2783,-11.2896,-11.2993,-11.3175,-11.3295,-11.3376,-11.3499,-11.3694,-11.3812,-11.4009,-11.4169,-11.448,-11.4588,-11.4771,-11.4773,-11.4917,-11.48,-11.4779,-11.477,-11.4757,-11.4772,-11.4935,-11.4938,-11.4941,-11.4943,0,-11.2724,-11.2768,-11.2941,-11.3135,-11.3278,-11.3432,-11.3583,-11.3674,-11.3779,-11.3915,-11.4118,-11.4244,-11.4492,-11.4685,-11.4877,-11.4969,-11.4972,-11.4981,-11.5022,-11.5003,-11.4964,-11.4983,-11.4574,-11.4968,-11.4965,-11.4964,-11.4962,-11.4961,-11.2926,-11.3067,-11.3232,-11.3426,-11.355,-11.3692,-11.3836,-11.3937,-11.4109,-11.4319,-11.4357,-11.4572,-11.4728,-11.4987,-11.5087,-11.5255,-11.5219,-11.5279,-11.5294,-11.5306,-11.5312,-11.4945,-11.529,-11.529,-11.5289,-11.5289,-11.5288,0,-11.3224,-11.3334,-11.3512,-11.3726,-11.3878,-11.3878,-11.4047,-11.4172,-11.4363,-11.4511,-11.4672,-11.4905,-11.5095,-11.5223,-11.5415,-11.5524,-11.5531,-11.5571,-11.556,-11.5581,-11.5335,-11.5278,-11.5563,-11.5563,-11.5563,-11.5563,-11.5563,-11.5562,-11.3397,-11.3635,-11.3699,-11.4,-11.4107,-11.4322,-11.4418,-11.4549,-11.4668,-11.4929,-11.5089,-11.5174,-11.5313,-11.5517,-11.5691,-11.5724,-11.5791,-11.5832,-11.5862,-11.5627,-11.5598,-11.5571,-11.5517,-11.5848,-11.5848,-11.6094,-11.6096,-11.6098]},{"header":{"parameterUnit":"m.s-1","parameterCategory":1,"la1":30.2991,"la2":30.254,"lo1":-89.0895,"lo2":-89.0444,"dy":0.0017,"dx":0.0017,"nx":28,"ny":28,"refTime":"2024-02-04T09:00:00:Z","depth":0,"parameterNumber":3,"parameterNumberName":"V-component_of_WINDS"},"data":[0,0,0,0,0,0,0,0,0,0,0,0,0,0,0,0,0,0,0,0,0,0,0,0,0,0,0,0,0,0,0,0,0,0,0,0,0,0,0,0,0,0,0,0,0,0,0,0,0,0,0,0,0,0,0,0,0,0,2.7673,2.7673,0,2.7627,2.7626,2.7626,2.7592,2.7591,2.7591,2.7591,2.7538,2.7537,2.7536,0,0,0,0,0,0,0,0,0,0,0,0,0,2.7728,2.7728,2.7673,2.7673,2.7672,2.7627,2.7626,2.7626,2.7592,2.7591,2.7591,2.7591,2.7538,2.7537,2.7536,0,0,0,0,0,0,0,0,0,0,0,0,0,2.7695,2.7727,2.7673,2.765,2.7647,2.7627,2.7626,2.7625,2.7592,2.7591,2.7591,2.7591,2.7539,2.7537,2.7536,2.7533,0,0,2.753,2.753,0,0,0,0,0,0,0,0,2.7697,2.7693,2.7654,2.7651,2.7649,2.7615,2.7626,2.7594,2.7592,2.7613,2.7591,2.759,2.7564,2.756,2.7552,2.7531,2.7529,2.753,2.7529,2.7528,2.7528,0,0,0,0,0,0,0,2.77,2.7695,2.7655,2.7653,2.765,2.764,2.7635,2.762,2.7591,2.7611,2.7608,2.7604,2.7562,2.7554,2.755,2.7528,2.753,2.7529,2.7528,2.7527,2.7503,2.7504,0,0,0,0,0,0,2.7706,2.7697,2.7656,2.7653,2.7673,2.764,2.7634,2.7626,2.7591,2.7585,2.7604,2.7602,2.7557,2.7552,2.7548,2.7544,2.7528,2.7527,2.7526,2.7503,2.7503,2.7504,0,0,0,0,0,0,2.7708,2.7703,2.7658,2.7675,2.7668,2.7639,2.763,2.7625,2.7617,2.7586,2.758,2.7601,2.7556,2.7551,2.7538,2.7541,2.7526,2.7524,2.7502,2.7503,2.7503,2.7534,0,0,0,0,0,0,2.7709,2.7704,2.7703,2.7675,2.7668,2.765,2.7631,2.7625,2.7615,2.7612,2.7582,2.7576,2.7555,2.7541,2.7536,2.7539,2.7523,2.7502,2.7503,2.7503,2.7533,2.7536,2.7539,0,0,0,0,0,2.7711,2.7713,2.7703,2.7699,2.7667,2.765,2.7645,2.7623,2.7615,2.7614,2.7594,2.7577,2.7542,2.754,2.7534,2.7536,2.7501,2.7502,2.7503,2.7531,2.7535,2.7538,0,0,0,0,0,0,2.774,2.7708,2.7698,2.769,2.7673,2.7644,2.7642,2.7628,2.7611,2.7609,2.7581,2.7574,2.7564,2.7549,2.7547,2.7533,2.752,2.7519,2.7543,2.7546,2.7549,2.7552,2.7522,0,0,0,0,0,2.7746,2.7736,2.7708,2.7704,2.7697,2.7671,2.7663,2.7648,2.7628,2.762,2.7599,2.758,2.7564,2.7554,2.7538,2.7531,2.7523,2.753,2.7533,2.7535,2.7535,2.753,2.7532,2.7507,2.7507,2.7507,0,0,2.7756,2.7738,2.7733,2.771,2.7695,2.7684,2.7665,2.7654,2.7646,2.7618,2.7605,2.7589,2.7565,2.7555,2.755,2.7542,2.7541,2.7536,2.7539,2.7537,2.7531,2.7533,2.7536,2.7507,2.7507,2.7507,0,0,2.7771,2.7757,2.7752,2.7738,2.7717,2.77,2.7699,2.7672,2.7661,2.7649,2.7627,2.7616,2.759,2.7575,2.7563,2.7574,2.7557,2.7569,2.7584,2.7579,2.7581,2.7583,2.7586,2.7588,2.7569,2.757,2.757,0,2.7787,2.7772,2.7751,2.7742,2.7732,2.7709,2.7703,2.769,2.7663,2.7656,2.7649,2.7617,2.7599,2.7585,2.7588,2.758,2.7577,2.7572,2.7583,2.7584,2.7585,2.7588,2.759,2.7571,2.7571,2.7571,2.7571,0,2.7792,2.7782,2.7781,2.7758,2.7748,2.7741,2.7718,2.771,2.7696,2.768,2.7667,2.7645,2.7625,2.762,2.7606,2.7604,2.76,2.7588,2.7574,2.759,2.7592,2.7593,2.7573,2.7573,2.7572,2.7572,0,0,2.7822,2.779,2.7789,2.7779,2.7755,2.7746,2.7737,2.7719,2.7713,2.7696,2.7687,2.7667,2.7656,2.7643,2.7627,2.7623,2.7633,2.7611,2.761,2.7615,2.763,2.7638,2.764,2.7622,2.7622,2.7622,2.7631,0,2.7833,2.7818,2.78,2.7791,2.7781,2.7759,2.7752,2.7735,2.7721,2.7709,2.7691,2.7678,2.7664,2.7657,2.7652,2.7633,2.7635,2.7632,2.7613,2.7612,2.7619,2.7641,2.765,2.766,2.7632,2.7632,2.7632,0,2.7842,2.7829,2.782,2.7797,2.7792,2.7786,2.7769,2.7758,2.7739,2.7728,2.7715,2.7698,2.7687,2.7676,2.766,2.7658,2.7649,2.7639,2.7638,2.7635,2.7623,2.7638,2.7662,2.7663,2.7634,2.7633,2.7633,0,2.7865,2.7844,2.7836,2.7828,2.7801,2.7798,2.7786,2.7766,2.7757,2.7741,2.7735,2.7717,2.7708,2.7694,2.7672,2.7666,2.7658,2.7645,2.7648,2.7649,2.7646,2.7647,2.7669,2.7642,2.7642,2.7642,2.7642,0,2.7878,2.7873,2.7846,2.7841,2.7835,2.7814,2.7808,2.7794,2.7777,2.7768,2.7747,2.7739,2.7711,2.77,2.7682,2.7672,2.7667,2.7657,2.7653,2.7659,2.766,2.7652,2.765,2.7643,2.7643,2.7643,2.7642,0,2.7902,2.7883,2.7873,2.785,2.7843,2.784,2.7819,2.7813,2.7797,2.7786,2.7782,2.7757,2.7742,2.772,2.7698,2.7686,2.7678,2.7671,2.7685,2.7682,2.7686,2.7686,2.7703,2.7704,2.7678,2.7678,2.7678,0,2.7911,2.7907,2.7884,2.7877,2.7867,2.7856,2.7848,2.7826,2.7817,2.7796,2.7792,2.7776,2.7762,2.7739,2.7718,2.7701,2.7693,2.77,2.769,2.7696,2.7692,2.7692,2.7692,2.7702,2.7703,2.7703,2.7703,0,2.7929,2.7921,2.791,2.7896,2.7886,2.7874,2.786,2.7855,2.7831,2.7822,2.7807,2.7797,2.7775,2.7759,2.774,2.7726,2.771,2.7707,2.7707,2.7712,2.7721,2.7716,2.7691,2.7706,2.7706,2.7706,2.7706,2.7705,2.7946,2.7941,2.7925,2.7913,2.7901,2.7889,2.7882,2.7867,2.7855,2.7837,2.7825,2.7812,2.7792,2.7765,2.7752,2.774,2.7733,2.7733,2.7732,2.7733,2.7735,2.7724,2.7736,2.7736,2.7736,2.7736,2.7736,0,2.7963,2.7952,2.7941,2.7924,2.7914,2.7903,2.7887,2.788,2.7869,2.7853,2.784,2.7824,2.7809,2.7787,2.777,2.7765,2.7757,2.7761,2.776,2.7757,2.7742,2.7744,2.7767,2.7767,2.7767,2.7767,2.7767,2.7767,2.7971,2.7963,2.7953,2.7939,2.7927,2.7915,2.7907,2.7896,2.7883,2.7866,2.7854,2.7841,2.7823,2.7805,2.779,2.7784,2.7778,2.7784,2.7776,2.7761,2.7758,2.7756,2.7757,2.7783,2.7783,2.7792,2.7792,2.7792]}]]